[[{"header":{"parameterUnit":"m.s-1","parameterCategory":1,"la1":30.2991,"la2":30.254,"lo1":-89.0895,"lo2":-89.0444,"dy":0.0017,"dx":0.0017,"nx":28,"ny":28,"refTime":"2024-08-27T09:00:00:Z","depth":0,"parameterNumber":2,"parameterNumberName":"U-component_of_WINDS"},"data":[0,0,0,0,0,0,0,0,0,0,0,0,0,0,0,0,0,0,0,0,0,0,0,0,0,0,0,0,0,0,0,0,0,0,0,0,0,0,0,0,0,0,0,0,0,0,0,0,0,0,0,0,0,0,0,0,0,0,-5.2605,-5.2605,0,-5.2658,-5.2659,-5.266,-5.2611,-5.2609,-5.2607,-5.2605,-5.2657,-5.2661,-5.2664,0,0,0,0,0,0,0,0,0,0,0,0,0,-5.2459,-5.2462,-5.2605,-5.2605,-5.2606,-5.2658,-5.2659,-5.266,-5.2611,-5.2608,-5.2606,-5.2604,-5.2656,-5.266,-5.2664,0,0,0,0,0,0,0,0,0,0,0,0,0,-5.2518,-5.2462,-5.2605,-5.2588,-5.2587,-5.2658,-5.2659,-5.266,-5.2611,-5.2608,-5.2605,-5.2603,-5.2655,-5.266,-5.2665,-5.2754,0,0,-5.268,-5.2682,0,0,0,0,0,0,0,0,-5.2515,-5.2524,-5.259,-5.2589,-5.2588,-5.2625,-5.2627,-5.2692,-5.2612,-5.2602,-5.2605,-5.2601,-5.2649,-5.2654,-5.2671,-5.2757,-5.2759,-5.268,-5.2683,-5.2685,-5.2686,0,0,0,0,0,0,0,-5.2511,-5.2521,-5.2626,-5.2591,-5.259,-5.2578,-5.2583,-5.2639,-5.2641,-5.2603,-5.2599,-5.2606,-5.2648,-5.2666,-5.2671,-5.276,-5.268,-5.2684,-5.2687,-5.2689,-5.2922,-5.2926,0,0,0,0,0,0,-5.2509,-5.2518,-5.2624,-5.2627,-5.2544,-5.2583,-5.2588,-5.2616,-5.2641,-5.2642,-5.2609,-5.2604,-5.2659,-5.2666,-5.2673,-5.2779,-5.2685,-5.269,-5.2692,-5.2919,-5.2923,-5.2927,0,0,0,0,0,0,-5.2506,-5.2519,-5.2622,-5.2572,-5.2584,-5.2588,-5.262,-5.2619,-5.2637,-5.2645,-5.2645,-5.2627,-5.2657,-5.2666,-5.2735,-5.278,-5.2692,-5.2696,-5.2915,-5.292,-5.2925,-5.2992,0,0,0,0,0,0,-5.2502,-5.2518,-5.2552,-5.2573,-5.2587,-5.2683,-5.2623,-5.2622,-5.2645,-5.2639,-5.2662,-5.2663,-5.2655,-5.2728,-5.274,-5.2785,-5.27,-5.2911,-5.2918,-5.2923,-5.2985,-5.2998,-5.3009,0,0,0,0,0,-5.2497,-5.2568,-5.2554,-5.2567,-5.263,-5.2686,-5.2693,-5.2684,-5.2649,-5.2683,-5.2689,-5.2662,-5.2774,-5.2735,-5.2748,-5.2796,-5.2908,-5.2916,-5.2923,-5.298,-5.2996,-5.3009,0,0,0,0,0,0,-5.255,-5.257,-5.2555,-5.2635,-5.2659,-5.2677,-5.272,-5.2701,-5.2734,-5.2727,-5.2713,-5.2719,-5.2791,-5.2801,-5.2757,-5.2884,-5.2835,-5.2846,-5.2875,-5.289,-5.2901,-5.2896,-5.2704,0,0,0,0,0,-5.2572,-5.2616,-5.2631,-5.2701,-5.2714,-5.2715,-5.2739,-5.273,-5.2754,-5.2763,-5.2774,-5.2798,-5.2838,-5.2865,-5.2903,-5.2988,-5.2992,-5.3028,-5.304,-5.3049,-5.3057,-5.3103,-5.3119,-5.2951,-5.2951,-5.2951,0,0,-5.2616,-5.2633,-5.2661,-5.2712,-5.2729,-5.2775,-5.2724,-5.2774,-5.2808,-5.2771,-5.2835,-5.2845,-5.2871,-5.2948,-5.2983,-5.2958,-5.3105,-5.3059,-5.3066,-5.3069,-5.3112,-5.3128,-5.3142,-5.2956,-5.2955,-5.2954,0,0,-5.2719,-5.2737,-5.2797,-5.2816,-5.2844,-5.2845,-5.286,-5.2881,-5.2886,-5.2952,-5.2925,-5.2965,-5.3035,-5.3055,-5.3074,-5.3188,-5.3164,-5.3201,-5.3262,-5.3307,-5.332,-5.3331,-5.3371,-5.3385,-5.321,-5.321,-5.321,0,-5.277,-5.2838,-5.2829,-5.2882,-5.2905,-5.2876,-5.2936,-5.2955,-5.2994,-5.301,-5.2983,-5.3071,-5.3087,-5.3168,-5.3196,-5.3213,-5.3229,-5.3196,-5.3319,-5.333,-5.3341,-5.3378,-5.3393,-5.3214,-5.3213,-5.3213,-5.3213,0,-5.2899,-5.2947,-5.2992,-5.3031,-5.306,-5.3116,-5.3115,-5.3145,-5.3135,-5.3139,-5.3206,-5.3224,-5.3265,-5.3284,-5.3274,-5.3365,-5.3349,-5.3321,-5.3271,-5.3361,-5.3396,-5.341,-5.322,-5.3218,-5.3217,-5.3216,0,0,-5.3034,-5.307,-5.3086,-5.3104,-5.3134,-5.3171,-5.3226,-5.3268,-5.3293,-5.3322,-5.3367,-5.3429,-5.3404,-5.3425,-5.3417,-5.3457,-5.3545,-5.3424,-5.3425,-5.3444,-5.3645,-5.3664,-5.3681,-5.3531,-5.3534,-5.3536,-5.3642,0,-5.3137,-5.3233,-5.3228,-5.3319,-5.3363,-5.3337,-5.3386,-5.341,-5.3416,-5.3454,-5.346,-5.3503,-5.3468,-5.3481,-5.3519,-5.3526,-5.3585,-5.3519,-5.3572,-5.3574,-5.3563,-5.3699,-5.3719,-5.3818,-5.3656,-5.3659,-5.366,0,-5.3269,-5.3303,-5.3398,-5.3423,-5.3441,-5.3485,-5.3523,-5.356,-5.3587,-5.3588,-5.3615,-5.3601,-5.3657,-5.3609,-5.3685,-5.364,-5.3662,-5.367,-5.3673,-5.3675,-5.362,-5.3703,-5.385,-5.3864,-5.3682,-5.368,-5.3679,0,-5.3355,-5.3426,-5.3492,-5.3508,-5.3539,-5.357,-5.3584,-5.3609,-5.3634,-5.3668,-5.3684,-5.3724,-5.3745,-5.3776,-5.3773,-5.3738,-5.385,-5.3802,-5.3852,-5.3852,-5.3874,-5.3872,-5.4024,-5.3893,-5.3893,-5.3892,-5.3892,0,-5.3469,-5.3528,-5.3531,-5.3571,-5.3637,-5.3631,-5.3696,-5.3707,-5.3729,-5.3771,-5.3752,-5.3792,-5.3787,-5.3827,-5.3826,-5.3889,-5.3899,-5.3901,-5.3899,-5.3901,-5.39,-5.3913,-5.3905,-5.3896,-5.3895,-5.3895,-5.3894,0,-5.3575,-5.358,-5.365,-5.3675,-5.3683,-5.3729,-5.375,-5.3788,-5.3794,-5.3847,-5.386,-5.3868,-5.3914,-5.3916,-5.3969,-5.3968,-5.4044,-5.4036,-5.4035,-5.4032,-5.4082,-5.4076,-5.4245,-5.4266,-5.4123,-5.4125,-5.4126,0,-5.3646,-5.3691,-5.3721,-5.3748,-5.3765,-5.3809,-5.3835,-5.3833,-5.3861,-5.3896,-5.393,-5.3975,-5.401,-5.4085,-5.4096,-5.4136,-5.4127,-5.4184,-5.4133,-5.4134,-5.4126,-5.4122,-5.4126,-5.4193,-5.4194,-5.4195,-5.4197,0,-5.377,-5.3771,-5.381,-5.3852,-5.3884,-5.3916,-5.3945,-5.3969,-5.397,-5.4003,-5.405,-5.4078,-5.4133,-5.4177,-5.4217,-5.4231,-5.4214,-5.4213,-5.4226,-5.4227,-5.4224,-5.4224,-5.4059,-5.4208,-5.4207,-5.4206,-5.4206,-5.4205,-5.3859,-5.3898,-5.3926,-5.397,-5.3993,-5.4022,-5.4059,-5.407,-5.411,-5.4155,-5.4152,-5.4204,-5.4232,-5.4283,-5.4302,-5.4342,-5.4323,-5.4342,-5.4347,-5.4351,-5.4356,-5.422,-5.435,-5.435,-5.4349,-5.4349,-5.4349,0,-5.3981,-5.3998,-5.404,-5.4083,-5.4118,-5.4102,-5.4134,-5.4164,-5.4211,-5.4239,-5.4275,-5.433,-5.4373,-5.4389,-5.4431,-5.4461,-5.4454,-5.4472,-5.4468,-5.4471,-5.4372,-5.4355,-5.4477,-5.4477,-5.4477,-5.4477,-5.4477,-5.4477,-5.4048,-5.4112,-5.4117,-5.4193,-5.421,-5.4262,-5.4282,-5.4308,-5.433,-5.4393,-5.4429,-5.444,-5.4463,-5.4507,-5.4546,-5.455,-5.4565,-5.4586,-5.4586,-5.4492,-5.4479,-5.4466,-5.445,-5.459,-5.459,-5.4682,-5.4683,-5.4684]},{"header":{"parameterUnit":"m.s-1","parameterCategory":1,"la1":30.2991,"la2":30.254,"lo1":-89.0895,"lo2":-89.0444,"dy":0.0017,"dx":0.0017,"nx":28,"ny":28,"refTime":"2024-08-27T09:00:00:Z","depth":0,"parameterNumber":3,"parameterNumberName":"V-component_of_WINDS"},"data":[0,0,0,0,0,0,0,0,0,0,0,0,0,0,0,0,0,0,0,0,0,0,0,0,0,0,0,0,0,0,0,0,0,0,0,0,0,0,0,0,0,0,0,0,0,0,0,0,0,0,0,0,0,0,0,0,0,0,2.2859,2.2859,0,2.2894,2.2895,2.2895,2.2903,2.2902,2.2902,2.2902,2.2936,2.2937,2.2938,0,0,0,0,0,0,0,0,0,0,0,0,0,2.2796,2.2797,2.2859,2.2859,2.2859,2.2894,2.2895,2.2895,2.2903,2.2902,2.2902,2.2902,2.2935,2.2937,2.2938,0,0,0,0,0,0,0,0,0,0,0,0,0,2.2827,2.2798,2.2858,2.2868,2.2869,2.2894,2.2895,2.2895,2.2903,2.2902,2.2902,2.2902,2.2935,2.2937,2.2938,2.2956,0,0,2.2944,2.2944,0,0,0,0,0,0,0,0,2.2825,2.2829,2.2866,2.2867,2.2868,2.2894,2.2885,2.2916,2.2903,2.289,2.2902,2.2902,2.2922,2.2925,2.2932,2.2958,2.2959,2.2944,2.2945,2.2945,2.2946,0,0,0,0,0,0,0,2.2823,2.2827,2.2873,2.2866,2.2868,2.2869,2.2873,2.2891,2.2907,2.2891,2.2892,2.2896,2.2923,2.293,2.2933,2.296,2.2944,2.2945,2.2946,2.2947,2.3004,2.3004,0,0,0,0,0,0,2.2819,2.2826,2.2871,2.2874,2.2845,2.2871,2.2875,2.2886,2.2907,2.291,2.2896,2.2896,2.2928,2.2931,2.2934,2.2958,2.2945,2.2947,2.2948,2.3003,2.3004,2.3005,0,0,0,0,0,0,2.2818,2.2823,2.287,2.285,2.2856,2.2872,2.2884,2.2887,2.2895,2.2911,2.2914,2.2901,2.2928,2.2932,2.2951,2.2959,2.2948,2.2949,2.3003,2.3004,2.3004,2.3004,0,0,0,0,0,0,2.2816,2.2823,2.283,2.285,2.2857,2.2887,2.2885,2.2888,2.2898,2.2898,2.2917,2.2919,2.2928,2.2949,2.2953,2.2961,2.2951,2.3002,2.3003,2.3004,2.3003,2.3005,2.3006,0,0,0,0,0,2.2814,2.2827,2.283,2.2836,2.2866,2.2887,2.2891,2.2901,2.2898,2.2906,2.2917,2.2919,2.2958,2.2951,2.2956,2.2964,2.3002,2.3003,2.3004,2.3003,2.3004,2.3006,0,0,0,0,0,0,2.2806,2.283,2.2833,2.2854,2.2869,2.2888,2.2898,2.2902,2.2917,2.2916,2.2927,2.2931,2.2951,2.2959,2.2951,2.2984,2.298,2.2982,2.2977,2.2979,2.298,2.2977,2.2952,0,0,0,0,0,2.2807,2.2823,2.2843,2.2859,2.2866,2.2881,2.289,2.2897,2.2912,2.2918,2.293,2.2944,2.296,2.297,2.2985,2.3005,2.301,2.3013,2.3015,2.3016,2.3017,2.303,2.3032,2.3008,2.3008,2.3008,0,0,2.2809,2.2824,2.2833,2.2858,2.287,2.2886,2.2886,2.2902,2.2914,2.292,2.294,2.295,2.2966,2.2987,2.2996,2.2994,2.3025,2.3017,2.3018,2.3019,2.3031,2.3033,2.3035,2.3009,2.3009,2.3009,0,0,2.282,2.2833,2.2848,2.2861,2.288,2.289,2.2894,2.2914,2.2921,2.2941,2.2947,2.2961,2.2987,2.2999,2.3008,2.3027,2.303,2.3031,2.3037,2.3049,2.3051,2.3053,2.306,2.3062,2.3033,2.3033,2.3033,0,2.2819,2.2844,2.2856,2.2872,2.2884,2.2892,2.2908,2.2919,2.2942,2.2949,2.2947,2.2982,2.2993,2.3017,2.3022,2.3029,2.3034,2.3029,2.305,2.3052,2.3054,2.306,2.3063,2.3033,2.3033,2.3033,2.3033,0,2.2842,2.286,2.287,2.2893,2.2905,2.2922,2.2936,2.2947,2.2953,2.2963,2.2984,2.2999,2.3018,2.3024,2.3029,2.3049,2.3048,2.3048,2.3044,2.3056,2.3062,2.3065,2.3033,2.3033,2.3033,2.3033,0,0,2.2848,2.288,2.2883,2.2895,2.2917,2.293,2.2947,2.2967,2.2977,2.2992,2.3007,2.303,2.3031,2.3042,2.3049,2.306,2.3074,2.3059,2.3059,2.3061,2.3098,2.3098,2.3101,2.3077,2.3077,2.3078,2.3097,0,2.2862,2.2894,2.2906,2.2931,2.2948,2.2957,2.2972,2.2987,2.2998,2.3013,2.3024,2.3041,2.304,2.3047,2.3058,2.307,2.3082,2.3069,2.309,2.3091,2.3086,2.3104,2.3104,2.3121,2.3099,2.31,2.31,0,2.2882,2.29,2.2928,2.295,2.2958,2.2971,2.2991,2.3005,2.3023,2.303,2.3044,2.3051,2.3069,2.3065,2.309,2.3081,2.3091,2.3098,2.3099,2.3101,2.3096,2.3107,2.3126,2.3129,2.3104,2.3104,2.3104,0,2.2885,2.2915,2.2937,2.2946,2.2972,2.2982,2.2993,2.3011,2.3022,2.304,2.3048,2.3066,2.3076,2.3091,2.3103,2.3098,2.3128,2.3124,2.3134,2.3134,2.3139,2.3139,2.3161,2.3145,2.3145,2.3145,2.3145,0,2.2899,2.2916,2.2938,2.2951,2.297,2.2984,2.3003,2.3015,2.3031,2.3046,2.3055,2.3069,2.3084,2.31,2.3109,2.3129,2.3134,2.314,2.3142,2.3139,2.3138,2.3145,2.3144,2.3146,2.3146,2.3146,2.3145,0,2.2905,2.292,2.2944,2.2968,2.2974,2.2987,2.3008,2.302,2.3032,2.3051,2.3057,2.3075,2.3094,2.3108,2.3132,2.3139,2.3161,2.3163,2.3155,2.3156,2.3166,2.3165,2.3193,2.3198,2.3179,2.3179,2.3179,0,2.2913,2.2926,2.2952,2.2964,2.2976,2.2994,2.3006,2.3021,2.3034,2.3056,2.3067,2.3087,2.3104,2.3135,2.315,2.3169,2.3172,2.318,2.3174,2.3172,2.3172,2.3172,2.3173,2.3181,2.3181,2.3181,2.3181,0,2.2926,2.2934,2.2952,2.2974,2.2989,2.3006,2.3023,2.3032,2.305,2.3064,2.3085,2.3098,2.3124,2.3145,2.3166,2.3177,2.3182,2.3183,2.3187,2.3184,2.3179,2.3182,2.3158,2.3182,2.3182,2.3182,2.3182,2.3182,2.2933,2.2946,2.2967,2.2988,2.3003,2.3019,2.3033,2.3048,2.3065,2.3089,2.3096,2.3118,2.3137,2.3166,2.3178,2.3195,2.3194,2.3199,2.32,2.3201,2.3202,2.3177,2.3199,2.3199,2.3199,2.3199,2.3199,0,2.2947,2.2962,2.2981,2.3006,2.3022,2.3027,2.3047,2.306,2.308,2.3098,2.3115,2.314,2.316,2.3177,2.3198,2.3209,2.3212,2.3214,2.3213,2.3216,2.3201,2.3196,2.3211,2.3211,2.3211,2.3211,2.3211,2.3211,2.2957,2.2979,2.299,2.302,2.3034,2.3057,2.3068,2.3083,2.3098,2.3125,2.3143,2.3155,2.3172,2.3195,2.3214,2.3219,2.3226,2.3228,2.3233,2.3218,2.3217,2.3215,2.3211,2.3229,2.3229,2.3246,2.3247,2.3247]}]]